| time (UTC) | temp F | wind direction | speed MPH | gust MPH | rain 1hr in | rain 24hr in | rain mn in | humidity % | barometer mb |
| 20260510230045 | 54 | 257 | 3.0 | 14.0 | 0.00 | 0.07 | 0.07 | 55 | 958.9 |
| 20260510224542 | 56 | 304 | 5.0 | 13.0 | 0.00 | 0.07 | 0.07 | 54 | 958.7 |
| 20260510223039 | 56 | 334 | 5.0 | 12.0 | 0.00 | 0.07 | 0.07 | 55 | 958.6 |
| 20260510221538 | 58 | 270 | 6.0 | 12.0 | 0.00 | 0.07 | 0.07 | 53 | 958.3 |
| 20260510220045 | 59 | 305 | 6.0 | 13.0 | 0.00 | 0.07 | 0.07 | 51 | 958.0 |
| 20260510214535 | 59 | 349 | 4.0 | 12.0 | 0.00 | 0.07 | 0.07 | 53 | 957.7 |
| 20260510213038 | 59 | 69 | 4.0 | 15.0 | 0.00 | 0.07 | 0.07 | 50 | 957.5 |
| 20260510211531 | 61 | 269 | 6.0 | 14.0 | 0.00 | 0.07 | 0.07 | 48 | 957.6 |
| 20260510210030 | 61 | 300 | 4.0 | 13.0 | 0.00 | 0.07 | 0.07 | 49 | 957.2 |
| 20260510204534 | 60 | 166 | 1.0 | 6.0 | 0.00 | 0.07 | 0.07 | 53 | 957.0 |
| 20260510203037 | 60 | 68 | 4.0 | 12.0 | 0.00 | 0.07 | 0.07 | 50 | 956.8 |
| 20260510201529 | 62 | 49 | 2.0 | 11.0 | 0.00 | 0.07 | 0.07 | 48 | 956.8 |
| 20260510200028 | 63 | 289 | 2.0 | 9.0 | 0.00 | 0.07 | 0.07 | 48 | 956.8 |
| 20260510194531 | 62 | 285 | 1.0 | 12.0 | 0.00 | 0.07 | 0.07 | 49 | 956.8 |
| 20260510193027 | 62 | 339 | 8.0 | 15.0 | 0.00 | 0.07 | 0.07 | 47 | 957.0 |
| 20260510191528 | 62 | 284 | 3.0 | 11.0 | 0.00 | 0.07 | 0.07 | 51 | 957.0 |
| 20260510190032 | 63 | 325 | 5.0 | 13.0 | 0.00 | 0.07 | 0.07 | 50 | 957.0 |
| 20260510184522 | 62 | 300 | 4.0 | 10.0 | 0.00 | 0.07 | 0.07 | 51 | 957.1 |
| 20260510183032 | 61 | 5 | 2.0 | 7.0 | 0.00 | 0.07 | 0.07 | 49 | 957.0 |
| 20260510181516 | 60 | 266 | 4.0 | 11.0 | 0.00 | 0.07 | 0.07 | 50 | 957.0 |
| 20260510180014 | 60 | 48 | 4.0 | 9.0 | 0.00 | 0.07 | 0.07 | 50 | 957.1 |
| 20260510174515 | 59 | 264 | 3.0 | 10.0 | 0.00 | 0.07 | 0.07 | 49 | 957.1 |
| 20260510173008 | 58 | 355 | 5.0 | 10.0 | 0.00 | 0.07 | 0.07 | 53 | 957.1 |
| 20260510171504 | 57 | 22 | 2.0 | 9.0 | 0.00 | 0.07 | 0.07 | 56 | 957.3 |
| 20260510170001 | 56 | 261 | 2.0 | 10.0 | 0.00 | 0.08 | 0.07 | 60 | 957.3 |
| 20260510164602 | 54 | 263 | 7.0 | 11.0 | 0.00 | 0.08 | 0.07 | 64 | 957.3 |
| 20260510163055 | 53 | 67 | 3.0 | 6.0 | 0.00 | 0.08 | 0.07 | 70 | 957.3 |
| 20260510161553 | 52 | 326 | 3.0 | 6.0 | 0.00 | 0.08 | 0.07 | 72 | 957.4 |
| 20260510160059 | 52 | 280 | 2.0 | 6.0 | 0.00 | 0.08 | 0.07 | 74 | 957.4 |
| 20260510154553 | 52 | 302 | 1.0 | 6.0 | 0.00 | 0.09 | 0.07 | 77 | 957.4 |
| 20260510153049 | 51 | 355 | 1.0 | 5.0 | 0.00 | 0.09 | 0.07 | 78 | 957.3 |
| 20260510151542 | 50 | 55 | 0.0 | 4.0 | 0.00 | 0.09 | 0.07 | 83 | 956.9 |
| 20260510150039 | 50 | 9 | 1.0 | 5.0 | 0.00 | 0.09 | 0.07 | 84 | 956.7 |
| 20260510144535 | 49 | 337 | 0.0 | 5.0 | 0.00 | 0.13 | 0.07 | 85 | 956.8 |
| 20260510143039 | 49 | 314 | 0.0 | 5.0 | 0.00 | 0.13 | 0.07 | 86 | 956.7 |
| 20260510141533 | 48 | 66 | 0.0 | 4.0 | 0.00 | 0.13 | 0.07 | 86 | 956.4 |
| 20260510140029 | 48 | 294 | 0.0 | 6.0 | 0.00 | 0.13 | 0.07 | 87 | 956.2 |
| 20260510134527 | 48 | 300 | 2.0 | 8.0 | 0.00 | 0.17 | 0.07 | 87 | 956.0 |
| 20260510133027 | 47 | 304 | 3.0 | 8.0 | 0.00 | 0.17 | 0.07 | 89 | 955.7 |
| 20260510131525 | 47 | 323 | 2.0 | 6.0 | 0.00 | 0.17 | 0.07 | 88 | 955.9 |
| 20260510130029 | 47 | 324 | 2.0 | 10.0 | 0.00 | 0.17 | 0.07 | 89 | 955.9 |
| 20260510124521 | 49 | 280 | 4.0 | 8.0 | 0.00 | 0.22 | 0.07 | 92 | 955.6 |
| 20260510123019 | 49 | 259 | 6.0 | 10.0 | 0.00 | 0.22 | 0.07 | 92 | 955.3 |
| 20260510121517 | 49 | 249 | 5.0 | 10.0 | 0.00 | 0.22 | 0.07 | 92 | 955.1 |
| 20260510120016 | 49 | 248 | 8.0 | 11.0 | 0.00 | 0.31 | 0.07 | 93 | 954.8 |
| 20260510114514 | 49 | 229 | 6.0 | 8.0 | 0.00 | 0.31 | 0.07 | 93 | 954.4 |
| 20260510113013 | 49 | 238 | 5.0 | 8.0 | 0.00 | 0.31 | 0.07 | 93 | 954.4 |
| 20260510111505 | 48 | 222 | 3.0 | 7.0 | 0.00 | 0.31 | 0.07 | 93 | 954.0 |
| 20260510110005 | 48 | 230 | 4.0 | 7.0 | 0.00 | 0.33 | 0.07 | 93 | 953.6 |
| 20260510104610 | 47 | 217 | 4.0 | 7.0 | 0.00 | 0.33 | 0.07 | 93 | 953.7 |
| 20260510103056 | 47 | 208 | 4.0 | 7.0 | 0.00 | 0.33 | 0.07 | 93 | 953.5 |
| 20260510101557 | 47 | 203 | 4.0 | 6.0 | 0.00 | 0.33 | 0.07 | 93 | 953.2 |
| 20260510100059 | 47 | 206 | 3.0 | 6.0 | 0.00 | 0.33 | 0.07 | 93 | 953.2 |
| 20260510094555 | 47 | 206 | 3.0 | 5.0 | 0.00 | 0.33 | 0.07 | 93 | 953.0 |
| 20260510093055 | 47 | 205 | 1.0 | 4.0 | 0.00 | 0.33 | 0.07 | 93 | 953.0 |
| 20260510091559 | 47 | 213 | 1.0 | 4.0 | 0.00 | 0.33 | 0.07 | 93 | 952.8 |
| 20260510084558 | 47 | 221 | 3.0 | 6.0 | 0.00 | 0.33 | 0.07 | 93 | 952.7 |
| 20260510083051 | 47 | 238 | 2.0 | 5.0 | 0.00 | 0.33 | 0.07 | 93 | 952.7 |
| 20260510081550 | 47 | 217 | 2.0 | 5.0 | 0.00 | 0.33 | 0.07 | 93 | 952.6 |
| 20260510080058 | 47 | 223 | 2.0 | 5.0 | 0.00 | 0.33 | 0.07 | 93 | 952.3 |
| 20260510074549 | 46 | 225 | 2.0 | 4.0 | 0.00 | 0.34 | 0.07 | 93 | 952.2 |
| 20260510073048 | 47 | 211 | 1.0 | 4.0 | 0.00 | 0.34 | 0.07 | 92 | 952.1 |
| 20260510071548 | 47 | 196 | 4.0 | 7.0 | 0.00 | 0.34 | 0.07 | 92 | 952.0 |
| 20260510070049 | 47 | 192 | 4.0 | 7.0 | 0.00 | 0.34 | 0.07 | 93 | 952.0 |
| 20260510064604 | 47 | 213 | 4.0 | 7.0 | 0.00 | 0.34 | 0.07 | 92 | 952.1 |
| 20260510063047 | 47 | 194 | 4.0 | 7.0 | 0.00 | 0.34 | 0.07 | 92 | 951.9 |
| 20260510061547 | 47 | 208 | 4.0 | 8.0 | 0.00 | 0.34 | 0.07 | 92 | 952.4 |
| 20260510060043 | 48 | 202 | 5.0 | 10.0 | 0.01 | 0.34 | 0.07 | 92 | 952.1 |
| 20260510054539 | 48 | 201 | 6.0 | 11.0 | 0.02 | 0.34 | 0.07 | 92 | 952.3 |
| 20260510053040 | 48 | 179 | 6.0 | 13.0 | 0.05 | 0.34 | 0.07 | 92 | 952.4 |
| 20260510051534 | 48 | 190 | 7.0 | 11.0 | 0.07 | 0.34 | 0.07 | 92 | 952.6 |
| 20260510050032 | 48 | 185 | 7.0 | 10.0 | 0.06 | 0.33 | 0.06 | 92 | 953.0 |
| 20260510044533 | 48 | 200 | 4.0 | 9.0 | 0.05 | 0.32 | 0.05 | 92 | 953.0 |
| 20260510043027 | 48 | 254 | 8.0 | 11.0 | 0.02 | 0.28 | 0.02 | 92 | 953.3 |
| 20260510041524 | 49 | 289 | 6.0 | 13.0 | 0.00 | 0.27 | 0.00 | 92 | 953.2 |
| 20260510040024 | 49 | 265 | 6.0 | 9.0 | 0.00 | 0.27 | 0.00 | 92 | 953.2 |
| 20260510034520 | 49 | 275 | 7.0 | 14.0 | 0.00 | 0.27 | 0.27 | 93 | 953.2 |
| 20260510033019 | 49 | 192 | 4.0 | 8.0 | 0.00 | 0.27 | 0.27 | 92 | 952.0 |
| 20260510031519 | 49 | 192 | 4.0 | 8.0 | 0.00 | 0.27 | 0.27 | 92 | 952.0 |
| 20260510030018 | 49 | 219 | 6.0 | 8.0 | 0.00 | 0.27 | 0.27 | 92 | 952.0 |
| 20260510024517 | 49 | 202 | 5.0 | 8.0 | 0.00 | 0.27 | 0.27 | 92 | 952.1 |
| 20260510023018 | 49 | 202 | 5.0 | 11.0 | 0.00 | 0.27 | 0.27 | 92 | 951.7 |
| 20260510021617 | 49 | 156 | 4.0 | 10.0 | 0.00 | 0.27 | 0.27 | 92 | 951.5 |
| 20260510020016 | 49 | 184 | 5.0 | 10.0 | 0.00 | 0.27 | 0.27 | 92 | 951.6 |
| 20260510014517 | 49 | 194 | 6.0 | 10.0 | 0.00 | 0.27 | 0.27 | 92 | 951.3 |
| 20260510013020 | 49 | 198 | 5.0 | 10.0 | 0.00 | 0.27 | 0.27 | 92 | 951.2 |
| 20260510011520 | 49 | 196 | 6.0 | 10.0 | 0.00 | 0.27 | 0.27 | 92 | 951.3 |
| 20260510010014 | 50 | 198 | 5.0 | 12.0 | 0.00 | 0.27 | 0.27 | 91 | 951.0 |
| 20260510004516 | 50 | 196 | 5.0 | 10.0 | 0.00 | 0.27 | 0.27 | 91 | 950.9 |
| 20260510003012 | 50 | 169 | 4.0 | 8.0 | 0.00 | 0.27 | 0.27 | 91 | 950.8 |
| 20260510001512 | 50 | 184 | 4.0 | 7.0 | 0.00 | 0.27 | 0.27 | 90 | 950.8 |
| 20260510000011 | 51 | 180 | 4.0 | 6.0 | 0.00 | 0.27 | 0.27 | 90 | 950.8 |
| 20260509234518 | 51 | 193 | 4.0 | 7.0 | 0.00 | 0.27 | 0.27 | 89 | 950.5 |
| 20260509233023 | 52 | 187 | 5.0 | 11.0 | 0.00 | 0.27 | 0.27 | 89 | 950.5 |
| 20260509231508 | 52 | 185 | 6.0 | 11.0 | 0.00 | 0.27 | 0.27 | 90 | 950.2 |